Location: Houston
(29.7630°N, 95.3630°W)
Time: 07:31:32
(UTC-05:00)

ISS - All Passes

Search period start: 25 April 2015 00:00
Search period end: 05 May 2015 00:00
Orbit: 395 x 402 km, 51.6° (Epoch: 25 April)

Date Brightness Start Highest point End Pass type
(mag) Time Alt. Az. Time Alt. Az. Time Alt. Az.
25 Apr - 10:46:33 10° SE 10:46:43 10° SE 10:47:04 10° ESE daylight
25 Apr - 12:19:41 10° WSW 12:22:49 43° NW 12:25:56 10° NNE daylight
25 Apr - 18:53:13 10° NNE 18:54:17 11° NNE 18:55:27 10° NE daylight
25 Apr - 20:27:45 10° NW 20:30:57 58° SW 20:34:07 10° SSE visible
26 Apr - 11:25:34 10° SW 11:28:47 72° SE 11:32:01 10° NE daylight
26 Apr - 19:33:45 10° NW 19:36:56 53° NE 19:40:06 10° ESE daylight
27 Apr - 10:32:03 10° S 10:34:50 27° SE 10:37:40 10° ENE daylight
27 Apr - 12:08:50 10° W 12:11:13 18° NW 12:13:34 10° N daylight
27 Apr - 18:40:07 10° NNW 18:42:49 23° NE 18:45:31 10° E daylight
27 Apr - 20:16:36 10° WNW 20:19:05 20° SW 20:21:29 10° S visible
28 Apr - 09:39:47 10° SSE 09:40:56 12° SE 09:42:13 10° ESE daylight
28 Apr - 11:13:59 10° WSW 11:17:03 38° NW 11:20:06 10° NNE daylight
28 Apr - 17:47:06 10° N 17:48:33 12° NE 17:50:06 10° ENE daylight
28 Apr - 19:22:00 10° NW 19:25:10 49° SW 19:28:17 10° SSE daylight
29 Apr - 10:19:46 10° SW 10:23:00 84° SE 10:26:15 10° NE daylight
29 Apr - 18:27:56 10° NW 18:31:10 62° NE 18:34:22 10° SE daylight
30 Apr - 09:26:08 10° SSW 09:29:02 31° SE 09:31:58 10° ENE daylight
30 Apr - 11:03:15 10° W 11:05:28 17° NW 11:07:38 10° N daylight
30 Apr - 17:34:15 10° NNW 17:37:03 26° NE 17:39:52 10° E daylight
30 Apr - 19:11:00 10° W 19:13:17 17° SW 19:15:29 10° S daylight
01 May - 08:33:31 10° SSE 08:35:07 13° SE 08:36:50 10° E daylight
01 May - 10:08:17 10° WSW 10:11:16 33° NW 10:14:16 10° NNE daylight
01 May - 16:41:05 10° N 16:42:49 14° NE 16:44:38 10° ENE daylight
01 May - 18:16:15 10° WNW 18:19:21 42° SW 18:22:25 10° SSE daylight
02 May - 09:13:58 10° SW 09:17:11 84° NW 09:20:27 10° NE daylight
02 May - 17:22:07 10° NW 17:25:22 72° NE 17:28:36 10° SE daylight
03 May - 08:20:14 10° SSW 08:23:13 36° SE 08:26:15 10° ENE daylight
03 May - 09:57:42 10° WNW 09:59:43 15° NW 10:01:40 10° N daylight
03 May - 16:28:22 10° NNW 16:31:16 30° NE 16:34:11 10° ESE daylight
03 May - 18:05:25 10° W 18:07:27 15° SW 18:09:23 10° SSW daylight
04 May - 07:27:22 10° SSE 07:29:18 15° SE 07:31:20 10° E daylight
04 May - 09:02:35 10° WSW 09:05:29 29° NW 09:08:23 10° NNE daylight
04 May - 15:35:04 10° N 15:37:03 15° NE 15:39:05 10° ENE daylight
04 May - 17:10:30 10° WNW 17:13:32 36° SW 17:16:32 10° SSE daylight
